Regional Weather Roundup
Issued by NWS Midland/Odessa, TX

Skip options and go directly to product.
Home | Oldest Version | Previous Version | Current Version | All | Text Only | Save Text | Print | Product List | Glossary Off

Skip product version selection by date and time.   

046
ASUS44 KMAF 060401
RWRMAF
MIDLAND AREA WEATHER ROUNDUP
NATIONAL WEATHER SERVICE MIDLAND TX
1100 PM CDT SUN JUL 05 2015

...IN SOUTHWEST TEXAS AND SOUTHEAST NEW MEXICO...

CITY           SKY/WX    TMP DP  RH WIND       PRES   REMARKS
ALPINE         CLOUDY    73  62  66 SW12      30.16R
ANDREWS        FAIR      82  63  53 S12       29.98R
ARTESIA        MOCLDY    84  61  45 SW8G15    29.96R
BIG SPRING     CLEAR     84  63  48 SE15G21   29.99R
CARLSBAD       MOCLDY    86  61  42 W9        29.95R
DRYDEN           N/A     84  66  54 SE8       29.96R
FORT STOCKTON  CLEAR     78  62  57 S13       29.99R
GUAD PASS      LGT RAIN  73  59  61 CALM      30.15S
HOBBS          MOCLDY    82  64  54 S15       30.00R
MARFA          CLOUDY   N/A N/A N/A S3        30.15S
MIDLAND AIRPK  CLEAR     83  64  51 S16       29.98R
MIDLAND INTL   CLEAR     82  64  54 S16       29.98R
ODESSA         CLEAR     82  63  52 S18       29.99R
PECOS          PTCLDY    83  61  47 SE12      29.91S
PRESIDIO       LGT RAIN  76  72  85 MISG      30.02R
SEMINOLE       PTCLDY    82  63  51 S14       29.99R
SNYDER         CLEAR     81  64  55 SE10      29.97R
WINK           MOCLDY    84  62  47 S20G25    29.94R
$$
...OTHER STATIONS IN TEXAS...

CITY           SKY/WX    TMP DP  RH WIND       PRES   REMARKS
ABILENE        CLEAR     82  64  54 SE10      29.97R
AMARILLO       MOCLDY    79  61  53 S14       29.96R
AUSTIN         CLEAR     80  74  81 SE12      30.02R
BROWNSVILLE    CLEAR     81  78  91 SE14      30.02R
CORPUS CHRISTI MOCLDY    82  77  84 S17G25    30.00R
DALLAS FTW     PTCLDY    86  70  58 S14       29.97R
DEL RIO        PTCLDY    85  69  58 E10       29.91R
EL PASO        MOCLDY    86  57  37 SW15G22   30.01R
HOUSTON INT    MOCLDY    83  75  77 S7        30.06R
LUBBOCK        PTCLDY    81  66  60 SE14      29.97R
SAN ANGELO     CLEAR     81  65  58 SE6       29.98R
SAN ANTONIO    CLOUDY    82  74  76 SE15      30.01R
WACO           CLEAR     82  72  71 S14       30.00R
WICHITA FALLS  NOT AVBL
$$
...OTHER LOCATIONS IN NEW MEXICO...

CITY           SKY/WX    TMP DP  RH WIND       PRES   REMARKS
ALAMAGORDO     MOCLDY    79  57  47 S7        30.02R
ALBUQUERQUE    CLOUDY    71  57  61 W3        30.14R
CANNON AFB     MOCLDY    74  60  61 S8        30.00R
CLOVIS         MOCLDY    75  57  53 S9          N/A
HOLLOMAN AFB   PTCLDY    78  64  63 SE2       30.00R
ROSWELL        MOCLDY    79  59  50 SW7       29.95R
RUIDOSO        CLOUDY    66  59  77 NW3       30.23R
SANTA FE       CLOUDY    67  53  61 N12       30.18R
TRUTH OR CONSE MOCLDY    76  58  53 NW8       30.07R
TUCUMCARI      PTCLDY    81  57  43 S10       29.94R
$$

USA.gov is the U.S. government's official web portal to all federal, state and local government web resources and services.